Date String (YYYY-MM-DD hh:mm:ss) UTC,Instrument flags,Ambient pressure (hPa),Sample flow (lpm),Bypass flow (lpm),Sample temperature (°C),Ambient temperature (°C),ASC tube jacket temperature (°C),LED temperature (°C),Box temperature (°C),Sample RH (%),Span deviation,Mass concentration (μg/m³),Mass concentration (μg/m³),Mass concentration (μg/m³)
DateTimeUTC,F1_M11,P_M11,Q1_M11,Q2_M11,T1_M11,T2_M11,T3_M11,T4_M11,T5_M11,U1_M11,ZSPAN_M11,X0_M11,X2_M11,X1_M11
2022-10-04 09:00:00,,0829.8,4.99,0.00,29.8,28.3,00.0,38.6,31.7,20.6,0000.0,0002.89,0002.08,0001.78
2022-10-04 09:01:00,,0829.7,4.99,0.00,29.8,28.2,00.0,38.6,31.6,20.5,0000.0,0003.55,0002.02,0001.77
2022-10-04 09:02:00,,0829.8,5.01,0.00,29.8,28.2,00.0,38.6,31.6,20.5,0000.0,0003.57,0002.03,0001.76
2022-10-04 09:03:00,,0829.8,4.99,0.00,29.8,28.2,00.0,38.6,31.6,20.4,0000.0,0003.56,0002.04,0001.76
2022-10-04 09:04:00,,0829.8,5.01,0.00,29.8,28.2,00.0,38.6,31.6,20.2,0000.0,0003.61,0002.05,0001.77
2022-10-04 09:05:00,,0829.8,4.99,0.00,29.8,28.2,00.0,38.6,31.6,20.1,0000.0,0003.55,0002.04,0001.78
2022-10-04 09:06:00,,0829.8,4.99,0.00,29.8,28.2,00.0,38.6,31.6,20.0,0000.0,0003.51,0002.03,0001.78
2022-10-04 09:07:00,,0829.8,5.01,0.00,29.8,28.2,00.0,38.6,31.6,19.9,0000.0,0003.51,0002.02,0001.78
2022-10-04 09:08:00,,0829.8,5.01,0.00,29.8,28.2,00.0,38.6,31.6,19.8,0000.0,0004.29,0002.05,0001.78
2022-10-04 09:09:00,,0829.8,4.98,0.00,29.8,28.2,00.0,38.6,31.6,19.7,0000.0,0004.43,0002.04,0001.79
2022-10-04 09:10:00,,0829.8,5.00,0.00,29.8,28.2,00.0,38.6,31.6,19.5,0000.0,0004.43,0002.05,0001.79
2022-10-04 09:11:00,,0829.7,5.00,0.00,29.8,28.2,00.0,38.6,31.6,19.6,0000.0,0004.48,0002.06,0001.79
2022-10-04 09:12:00,,0829.8,5.00,0.00,29.8,28.2,00.0,38.6,31.6,19.7,0000.0,0003.73,0002.10,0001.80
2022-10-04 09:13:00,,0829.8,5.01,0.00,29.8,28.2,00.0,38.6,31.6,19.7,0000.0,0003.68,0002.11,0001.81
2022-10-04 09:14:00,,0829.8,5.00,0.00,29.8,28.2,00.0,38.6,31.6,19.6,0000.0,0003.67,0002.11,0001.81
2022-10-04 09:15:00,,0829.7,4.98,0.00,29.8,28.2,00.0,38.6,31.6,19.6,0000.0,0003.66,0002.11,0001.82
2022-10-04 09:16:00,,0829.7,5.01,0.00,29.8,28.2,00.0,38.6,31.6,19.7,0000.0,0004.03,0002.13,0001.82
2022-10-04 09:17:00,,0829.7,5.00,0.00,29.8,28.2,00.0,38.6,31.6,19.8,0000.0,0004.13,0002.13,0001.81
2022-10-04 09:18:00,,0829.7,5.00,0.00,29.8,28.2,00.0,38.6,31.6,19.7,0000.0,0004.27,0002.17,0001.83
2022-10-04 09:19:00,,0829.7,5.00,0.00,29.8,28.2,00.0,38.6,31.6,19.6,0000.0,0003.85,0002.18,0001.84
2022-10-04 09:20:00,,0829.7,5.00,0.00,29.8,28.2,00.0,38.6,31.6,19.6,0000.0,0003.37,0002.16,0001.84
2022-10-04 09:21:00,,0829.7,5.00,0.00,29.8,28.2,00.0,38.5,31.6,19.6,0000.0,0003.45,0002.18,0001.85
2022-10-04 09:22:00,,0829.7,4.99,0.00,29.8,28.2,00.0,38.6,31.6,19.6,0000.0,0003.48,0002.15,0001.84
2022-10-04 09:23:00,,0829.7,5.01,0.00,29.8,28.2,00.0,38.6,31.6,19.5,0000.0,0003.54,0002.17,0001.84
2022-10-04 09:24:00,,0829.7,5.00,0.00,29.8,28.2,00.0,38.5,31.6,19.6,0000.0,0003.56,0002.18,0001.85
2022-10-04 09:25:00,,0829.8,5.00,0.00,29.8,28.2,00.0,38.5,31.6,19.6,0000.0,0003.61,0002.18,0001.85
2022-10-04 09:26:00,,0829.8,5.02,0.00,29.8,28.2,00.0,38.5,31.6,19.6,0000.0,0003.57,0002.14,0001.86
2022-10-04 09:27:00,,0829.8,5.00,0.00,29.8,28.2,00.0,38.5,31.6,19.9,0000.0,0003.17,0002.11,0001.86
2022-10-04 09:28:00,,0829.8,4.99,0.00,29.8,28.2,00.0,38.5,31.6,20.3,0000.0,0003.01,0002.10,0001.87
2022-10-04 09:29:00,,0829.8,5.01,0.00,29.7,28.1,00.0,38.5,31.5,20.3,0000.0,0002.91,0002.08,0001.88
2022-10-04 09:30:00,,0829.8,4.99,0.00,29.7,28.1,00.0,38.5,31.5,20.3,0000.0,0002.91,0002.11,0001.89
2022-10-04 09:31:00,,0829.7,5.00,0.00,29.7,28.1,00.0,38.5,31.5,20.2,0000.0,0002.98,0002.16,0001.91
2022-10-04 09:32:00,,0829.8,5.01,0.00,29.7,28.1,00.0,38.5,31.5,20.0,0000.0,0002.92,0002.16,0001.93
2022-10-04 09:33:00,,0829.8,5.00,0.00,29.7,28.1,00.0,38.5,31.5,20.0,0000.0,0002.89,0002.19,0001.95
2022-10-04 09:34:00,,0829.8,5.00,0.00,29.7,28.1,00.0,38.5,31.5,20.0,0000.0,0002.86,0002.18,0001.95
2022-10-04 09:35:00,,0829.8,5.00,0.00,29.7,28.1,00.0,38.5,31.5,20.1,0000.0,0002.87,0002.18,0001.95
2022-10-04 09:36:00,,0829.8,5.00,0.00,29.7,28.1,00.0,38.5,31.5,20.2,0000.0,0002.86,0002.20,0001.94
2022-10-04 09:37:00,,0829.8,4.99,0.00,29.7,28.1,00.0,38.5,31.5,20.4,0000.0,0002.98,0002.26,0001.96
2022-10-04 09:38:00,,0829.8,5.00,0.00,29.7,28.0,00.0,38.5,31.5,20.4,0000.0,0003.10,0002.30,0001.98
2022-10-04 09:39:00,,0829.7,5.00,0.00,29.7,28.0,00.0,38.5,31.5,20.5,0000.0,0003.15,0002.33,0001.99
2022-10-04 09:40:00,,0829.7,5.01,0.00,29.7,28.0,00.0,38.5,31.5,20.4,0000.0,0003.17,0002.33,0001.99
2022-10-04 09:41:00,,0829.7,4.99,0.00,29.7,28.0,00.0,38.5,31.4,20.3,0000.0,0003.28,0002.33,0001.99
2022-10-04 09:42:00,,0829.7,5.00,0.00,29.7,28.0,00.0,38.5,31.5,20.1,0000.0,0003.31,0002.32,0001.99
2022-10-04 09:43:00,,0829.7,5.01,0.00,29.7,28.0,00.0,38.5,31.5,20.0,0000.0,0003.29,0002.31,0001.98
2022-10-04 09:44:00,,0829.7,4.99,0.00,29.7,28.0,00.0,38.5,31.4,19.8,0000.0,0003.18,0002.27,0001.98
2022-10-04 09:45:00,,0829.6,5.00,0.00,29.6,28.0,00.0,38.4,31.4,19.6,0000.0,0003.06,0002.22,0001.97
2022-10-04 09:46:00,,0829.7,5.00,0.00,29.6,28.0,00.0,38.4,31.4,19.6,0000.0,0003.07,0002.21,0001.97
2022-10-04 09:47:00,,0829.8,5.00,0.00,29.6,28.0,00.0,38.4,31.4,19.6,0000.0,0003.14,0002.19,0001.98
2022-10-04 09:48:00,,0829.6,5.01,0.00,29.6,28.0,00.0,38.4,31.4,19.6,0000.0,0003.08,0002.16,0001.97
2022-10-04 09:49:00,,0829.8,5.01,0.00,29.6,28.0,00.0,38.4,31.4,19.6,0000.0,0002.94,0002.12,0001.96
2022-10-04 09:50:00,,0829.7,4.99,0.00,29.6,28.0,00.0,38.4,31.4,19.7,0000.0,0002.88,0002.10,0001.95
2022-10-04 09:51:00,,0829.6,5.00,0.00,29.6,28.0,00.0,38.4,31.4,19.7,0000.0,0002.87,0002.08,0001.94
2022-10-04 09:52:00,,0829.6,5.01,0.00,29.6,28.0,00.0,38.4,31.4,19.7,0000.0,0002.73,0002.06,0001.93
2022-10-04 09:53:00,,0829.6,5.00,0.00,29.6,28.0,00.0,38.4,31.4,19.8,0000.0,0002.77,0002.06,0001.94
2022-10-04 09:54:00,,0829.7,4.99,0.00,29.6,28.0,00.0,38.4,31.4,19.8,0000.0,0002.74,0002.05,0001.94
2022-10-04 09:55:00,,0829.7,5.00,0.00,29.6,27.9,00.0,38.4,31.4,19.7,0000.0,0002.75,0002.06,0001.93
2022-10-04 09:56:00,,0829.7,5.01,0.00,29.6,27.9,00.0,38.4,31.4,19.9,0000.0,0002.79,0002.07,0001.92
2022-10-04 09:57:00,,0829.7,4.98,0.00,29.6,27.9,00.0,38.4,31.4,19.9,0000.0,0002.85,0002.09,0001.91
2022-10-04 09:58:00,,0829.7,5.01,0.00,29.5,27.9,00.0,38.4,31.3,20.0,0000.0,0002.77,0002.08,0001.90
2022-10-04 09:59:00,,0829.8,5.01,0.00,29.5,27.9,00.0,38.4,31.4,20.1,0000.0,0002.74,0002.08,0001.90
